User: anonymous   Login
Location: Dos Palmas
(32.4468°N, 116.8732°W)
Time: 21:34:10
(UTC+00:00)
Language:

Meteor 1-24 Rocket - Orbit

View from above orbital plane
View from above orbital plane
View from above satellite
View from above satellite

Ground track
Ground track

The orbit data is extracted from the following two-line orbital elements,

1  8800U 76032B   21267.15329973 -.00000034  00000-0 -25832-4 0  9994
2  8800  81.2503 139.6580 0095320  88.2292 272.9793 14.10169227338038
Epoch (UTC): 24 September 2021 03:40:45
Eccentricity: 0.0095320
inclination: 81.2503°
perigee height: 790 km
apogee height: 928 km
right ascension of ascending node: 139.6580°
argument of perigee: 88.2292°
revolutions per day: 14.10169227
mean anomaly at epoch: 272.9793°
orbit number at epoch: 33803

The dashed part of the orbit path shows where the satellite is in the earth's shadow,  

DLR